Вернуться в каталог

FENGYUN 1C DEB

АктивенSSO
NORAD 30648·DEBRIS·🇨🇳 China

Запущен May 10, 1999 с Taiyuan Satellite Launch Center

Loading…

Ближайшие Пролёты (ближайшие 24 часа)

TLE

СвежийSource: Space-Track

Эпоха: Sep 14, 2026, 13:25 UTC

1 30648U 99025APF 26257.55926546  .00004132  00000-0  10327-2 0  9995
2 30648  98.6440   4.2757 0030567  11.7950   1.1728 14.51801609 18657

Отслеживайте FENGYUN 1C DEB в реальном времени с AllMySat

Download on the App Store